Regional Weather Roundup
Issued by NWS

Home | Current Version | Previous Version | Text Only | Print | Product List | Glossary On
Versions: 1 2 3 4 5 6 7 8 9 10 11 12 13 14 15 16 17 18 19 20 21 22 23 24 25 26 27 28 29 30 31 32 33 34 35 36 37 38 39 40 41 42 43 44 45 46 47 48 49 50
855
ASUS43 KTOP 231959
RWRKS

WEATHER ROUNDUP FOR KANSAS
NATIONAL WEATHER SERVICE GOODLAND KS
200 PM CST TUE JAN 23 2018

NOTE:  "FAIR" INDICATES FEW OR NO CLOUDS BELOW 12,000 FEET WITH NO
SIGNIFICANT WEATHER AND/OR OBSTRUCTIONS TO VISIBILITY.

KSZ001>006-013>018-027>032-041>047-232100-
NORTHWEST KANSAS

CITY           SKY/WX    TMP DP  RH WIND       PRES   REMARKS
GOODLAND       SUNNY     33  23  66 NW12      30.23F WCI  24
HAYS           SUNNY     41  25  53 NW12      30.22F
HILL CITY      SUNNY     41  28  60 NW15      30.23S
RUSSELL        SUNNY     40  28  62 NW12      30.20F WCI  33
$$

KSZ061>065-074>080-084>089-232100-
SOUTHWEST KANSAS

CITY           SKY/WX    TMP DP  RH WIND       PRES   REMARKS
DODGE CITY     SUNNY     60  20  21 NW17G23   30.23F
GARDEN CITY    SUNNY     46  20  35 NW14G24   30.23F
GREAT BEND     SUNNY     45  22  40 NW12      30.22F
LIBERAL        SUNNY     50  17  27 N17       30.25F
$$

KSZ066>073-081>083-090>101-232100-
SOUTHEAST KANSAS

CITY           SKY/WX    TMP DP  RH WIND       PRES   REMARKS
CHANUTE          N/A     41  26  55 W13       30.22
COFFEYVILLE    SUNNY     44  25  47 NW8       30.23F
HUTCHINSON     SUNNY     45  23  42 W9        30.21F
MEDICINE LODGE   N/A     51  18  27 NW16G23   30.22F
NEWTON         SUNNY     43  23  45 NW8       30.22F
PARSONS        SUNNY     42  26  53 W9        30.24S
WICHITA INTL   MOSUNNY   46  21  37 VRB5      30.22F
WICHITA JABRA  SUNNY     45  20  36 NW13      30.22F
WICHITA MCCONL SUNNY     45  19  35 NW10      30.22F
WINFIELD       SUNNY     48  17  29 NW8       30.24F
$$

KSZ007>012-019>026-033>040-048>060-102>105-232100-
NORTHEAST KANSAS

CITY           SKY/WX    TMP DP  RH WIND       PRES   REMARKS
CONCORDIA      SUNNY     38  28  67 NW7       30.19F
EMPORIA        SUNNY     37  26  64 NW9       30.20F
LAWRENCE       MOSUNNY   34  27  75 W10       30.21F WCI  26
MANHATTAN      SUNNY     35  25  66 W8        30.22F
OLATHE IND     MOSUNNY   32  27  81 W12       30.20F WCI  23
OLATHE EXE     MOSUNNY   31  26  82 W14       30.19S WCI  21
SALINA         SUNNY     45  24  43 NW10      30.22F
TOPEKA BILLARD MOSUNNY   33  27  78 W12       30.22S WCI  24
TOPEKA FORBES  MOSUNNY   34  27  75 W12       30.21S WCI  25
$$




USA.gov is the U.S. government's official web portal to all federal, state and local government web resources and services.